Other Surface Observations
Issued by NWS Charleston, SC

Home | Current Version | Previous Version | Text Only | Print | Product List | Glossary On
Versions: 1 2 3 4 5 6 7 8 9 10 11 12 13 14 15 16 17 18 19 20 21 22 23 24 25 26 27 28 29 30 31 32 33 34 35 36 37 38 39 40 41 42 43 44 45 46 47 48 49 50
000
SXUS52 KCHS 251525
OSOCHS

MARINE OBSERVATIONS
NATIONAL WEATHER SERVICE CHARLESTON SC
1100 AM EDT FRI JUL 25 2014

...DOWNTOWN CHARLESTON AND HARBOR...

CITY           SKY/WX    TMP DP  RH WIND       PRES   REMARKS
WATERFRONT PRK   N/A     84 N/A N/A SW6         N/A
FORT JOHNSON   NOT AVBL

...LAKE MOULTRIE...

CITY           SKY/WX    TMP DP  RH WIND       PRES   REMARKS
PINOPOLIS        N/A     88  75  66 W2        29.94R HX  97

...LAKE AND SUPPLEMENTAL COASTAL OBSERVATIONS...

STATION/POSITION TIME  TEMP    WIND        PRES    WAVE   SWELL
                       AIR SEA DIR/SP/G            HT/PER HT/PER/DIR
                 (UTC) (F)     (DEG/KT/KT) (MB)    (FT/S) (FT/S/D)
FORT PULASKI     1500   84     270/  5/  6 1017.6R
SAPELO ISLAND    1400   84     260/ 11     1018.0S
UPR LAKE MARION  NOT AVBL
WINYAH BAY       1500   85     240/  4     1016.0S
LAKE MURRAY      1500   75      40/  1/  3 1016.9S
ACE BASIN NERRS  1500   86     260/  2     1017.0S


...C-MAN AND BUOY OBSERVATIONS...

STATION/POSITION TIME  TEMP    WIND        PRES    WAVE   SWELL
                       AIR SEA DIR/SP/G            HT/PER HT/PER/DIR
                 (UTC) (F)     (DEG/KT/KT) (MB)    (FT/S) (FT/S/D)
BUOY 41004       1500   82 82  260/ 10/ 12 1016.7R   4/ 5   3/ 5
BUOY 41008       1500   82 84  250/ 12/ 14 1017.6R   2/ 3   2/140/ 6
FOLLY BEACH CMAN 1500   86     210/  4/  7 1017.4R
CAPERS NS BUOY   1400   83     250/  8/ 10   N/A
FRIPP NS BUOY    NOT AVBL
5E ST. MARYS GA  1500      85                N/A     2/ 4
FRYING PAN BUOY  NOT AVBL
BUOY 41025       1500          VRB 10/ 12  1017.0R   3/ 7   2/150/ 7
CAPE LOOKOUT NC  1500   76      30/ 11/ 13 1017.6R
BUOY 41002       1437   74 82  320/ 16/ 17 1020.5R   5/ 7   2/230/ 7
BUOY 41010       1500   83 84  210/ 12/ 14 1019.6R   3/ 8   2/130/ 8
BUOY 41012       NOT AVBL
ST AUGUSTINE FL  1500   87     250/  6/  7 1019.2R


$$



USA.gov is the U.S. government's official web portal to all federal, state and local government web resources and services.